TimeCST,TemperatureF,Dew PointF,Humidity,Sea Level PressureIn,VisibilityMPH,Wind Direction,Wind SpeedMPH,Gust SpeedMPH,PrecipitationIn,Events,Conditions,WindDirDegrees,DateUTC
12:53 AM,21.0,17.1,85,30.15,9.0,Calm,Calm,-,N/A,,Overcast,0,2013-02-25 06:53:00
1:53 AM,21.0,16.0,81,30.16,9.0,Calm,Calm,-,N/A,,Mostly Cloudy,0,2013-02-25 07:53:00
2:53 AM,19.9,16.0,85,30.15,8.0,Calm,Calm,-,N/A,,Mostly Cloudy,0,2013-02-25 08:53:00
3:53 AM,19.9,16.0,85,30.15,8.0,Calm,Calm,-,N/A,,Overcast,0,2013-02-25 09:53:00
4:53 AM,19.0,16.0,88,30.16,7.0,Calm,Calm,-,N/A,,Overcast,0,2013-02-25 10:53:00
5:53 AM,21.0,18.0,88,30.17,8.0,Calm,Calm,-,N/A,,Overcast,0,2013-02-25 11:53:00
6:53 AM,19.0,16.0,88,30.17,5.0,Calm,Calm,-,N/A,,Mostly Cloudy,0,2013-02-25 12:53:00
7:53 AM,21.0,17.1,85,30.17,6.0,Calm,Calm,-,N/A,,Overcast,0,2013-02-25 13:53:00
8:53 AM,26.1,19.9,78,30.17,9.0,Calm,Calm,-,N/A,,Overcast,0,2013-02-25 14:53:00
9:53 AM,30.9,21.9,69,30.16,9.0,Calm,Calm,-,N/A,,Overcast,0,2013-02-25 15:53:00
10:53 AM,34.0,23.0,64,30.16,9.0,Calm,Calm,-,N/A,,Overcast,0,2013-02-25 16:53:00
11:53 AM,37.9,24.1,57,30.15,8.0,Calm,Calm,-,N/A,,Overcast,0,2013-02-25 17:53:00
12:53 PM,39.0,25.0,57,30.13,10.0,SW,4.6,-,N/A,,Mostly Cloudy,220,2013-02-25 18:53:00
1:53 PM,39.0,26.1,60,30.11,8.0,Calm,Calm,-,N/A,,Clear,0,2013-02-25 19:53:00
2:53 PM,39.9,27.0,60,30.09,7.0,SSW,3.5,-,N/A,,Overcast,200,2013-02-25 20:53:00
3:53 PM,41.0,27.0,57,30.10,7.0,Calm,Calm,-,N/A,,Overcast,0,2013-02-25 21:53:00
4:45 PM,39.2,26.6,61,30.05,2.0,Calm,Calm,-,N/A,,Haze,0,2013-02-25 22:45:00
4:53 PM,39.0,25.0,57,30.08,2.5,Calm,Calm,-,N/A,,Haze,0,2013-02-25 22:53:00
5:00 PM,37.4,26.6,65,30.05,6.0,Calm,Calm,-,N/A,,Haze,0,2013-02-25 23:00:00
5:53 PM,37.0,25.0,62,30.08,9.0,Calm,Calm,-,N/A,,Overcast,0,2013-02-25 23:53:00
6:53 PM,33.1,25.0,72,30.09,9.0,Calm,Calm,-,N/A,,Clear,0,2013-02-26 00:53:00
7:53 PM,28.9,25.0,85,30.07,7.0,Calm,Calm,-,N/A,,Clear,0,2013-02-26 01:53:00
8:53 PM,28.0,24.1,85,30.06,6.0,Calm,Calm,-,N/A,,Clear,0,2013-02-26 02:53:00
9:53 PM,27.0,24.1,89,30.06,3.0,Calm,Calm,-,N/A,,Clear,0,2013-02-26 03:53:00
10:53 PM,26.1,23.0,88,30.05,4.0,Calm,Calm,-,N/A,,Clear,0,2013-02-26 04:53:00
11:53 PM,28.9,25.0,85,30.03,5.0,NE,4.6,-,N/A,,Clear,50,2013-02-26 05:53:00